Location: Starlight Observatory
(38.4029°N, 85.8936°W)
Time: 12:39:18
(UTC-04:00)

Iridium 62 - Visible Passes

Search period start: 28 May 2017 00:00
Search period end: 07 June 2017 00:00
Orbit: 776 x 779 km, 86.4° (Epoch: 27 May)

Date Brightness Start Highest point End Pass type
(mag) Time Alt. Az. Time Alt. Az. Time Alt. Az.
28 May 6.2 00:45:10 56° NE 00:45:10 56° NE 00:49:34 10° N visible
28 May 8.1 02:25:38 14° WNW 02:25:38 14° WNW 02:28:08 10° NW visible
29 May 6.9 00:11:36 32° ENE 00:11:36 32° ENE 00:15:40 10° NNE visible
29 May 7.4 01:52:03 25° WNW 01:52:03 25° WNW 01:56:02 10° NNW visible
29 May 7.6 23:38:01 18° ENE 23:38:01 18° ENE 23:41:14 10° NE visible
30 May 6.5 01:18:29 45° WNW 01:18:29 45° WNW 01:23:05 10° N visible
31 May 5.9 00:44:53 76° N 00:44:53 76° N 00:49:43 10° N visible
01 Jun 6.2 00:11:18 48° ENE 00:11:18 48° ENE 00:16:02 10° NNE visible
01 Jun 7.8 01:51:45 17° W 01:52:01 17° WNW 01:55:27 10° NW visible
01 Jun 7.0 23:37:42 26° E 23:37:42 26° E 23:41:58 10° NNE visible
02 Jun 7.0 01:18:09 32° W 01:18:14 32° W 01:22:53 10° NNW visible
02 Jun 7.7 23:04:05 14° E 23:04:29 14° ENE 23:07:07 10° NE visible
03 Jun 6.1 00:44:32 60° W 00:44:35 60° W 00:49:45 10° N visible
04 Jun 5.7 00:10:55 72° ESE 00:11:03 72° E 00:16:16 10° N visible
04 Jun 8.2 01:51:22 11° W 01:52:20 12° WNW 01:54:11 10° NW visible
04 Jun 6.5 23:37:17 37° E 23:37:39 38° E 23:42:27 10° NNE visible
05 Jun 7.5 01:17:44 22° W 01:18:28 22° WNW 01:22:30 10° NNW visible
05 Jun 7.3 23:03:38 20° E 23:04:22 21° E 23:08:09 10° NE visible
06 Jun 6.6 00:44:06 39° WSW 00:44:44 41° W 00:49:39 10° NNW visible
06 Jun 7.9 22:30:07 10° E 22:31:12 11° ENE 22:32:18 10° ENE visible
